When you browse on this site, cookies collect data to enhance your experience and personalize the content and advertising you see.
Visit our Privacy Policy to learn more. By continuing to use the site, you agree to this use of cookies and data.
  • In Austria
  • List of Countries
  • For 7 days
  • Water Temperature
  • Weather Map
  • News
  • Weather Widgets
  • user-avatar
    Login

    Hourly Weather Gubovskiy

    Today, 5 April, Sunday

    Time Temperature Precipitation Wind Pressure Humidity
    00:00 +4°C° 0 mm 1 mps 750 mmHg 73%
    01:00 +3°C° 0 mm 2 mps 750 mmHg 71%
    02:00 +3°C° 0 mm 2 mps 750 mmHg 72%
    03:00 +2°C° 0 mm 3 mps 750 mmHg 73%
    04:00 +2°C° 0 mm 3 mps 750 mmHg 72%
    05:00 +2°C° 0 mm 3 mps 749 mmHg 72%
    06:00 +3°C° 0 mm 3 mps 749 mmHg 72%
    07:00 +3°C° 0 mm 3 mps 749 mmHg 72%
    08:00 +5°C° 0 mm 4 mps 749 mmHg 66%
    09:00 +7°C° 0 mm 4 mps 749 mmHg 60%
    10:00 +10°C° 0 mm 4 mps 749 mmHg 54%
    11:00 +10°C° 0 mm 5 mps 749 mmHg 49%
    12:00 +11°C° 0 mm 6 mps 748 mmHg 44%
    13:00 +12°C° 0 mm 7 mps 748 mmHg 39%
    14:00 +12°C° 0.3 mm 7 mps 748 mmHg 46%
    15:00 +11°C° 0.3 mm 7 mps 748 mmHg 53%
    16:00 +10°C° 0.3 mm 7 mps 748 mmHg 60%
    17:00 +8°C° 0.1 mm 6 mps 748 mmHg 68%
    18:00 +6°C° 0.1 mm 5 mps 748 mmHg 76%
    19:00 +4°C° 0.1 mm 4 mps 748 mmHg 84%
    20:00 +3°C° 0 mm 5 mps 748 mmHg 85%
    21:00 +2°C° 0 mm 5 mps 748 mmHg 85%
    22:00 +2°C° 0 mm 5 mps 748 mmHg 85%
    23:00 +1°C° 0 mm 4 mps 748 mmHg 87%

    Tomorrow, 6 April, Monday

    Time Temperature Precipitation Wind Pressure Humidity
    00:00 0°C° 0 mm 4 mps 748 mmHg 88%
    01:00 +1°C° 0 mm 3 mps 747 mmHg 89%
    02:00 0°C° 0 mm 3 mps 748 mmHg 90%
    03:00 +1°C° 0 mm 2 mps 748 mmHg 91%
    04:00 -1°C° 0 mm 2 mps 748 mmHg 92%
    05:00 -1°C° 0 mm 2 mps 748 mmHg 91%
    06:00 -1°C° 0 mm 2 mps 748 mmHg 91%
    07:00 +1°C° 0 mm 2 mps 747 mmHg 90%
    08:00 +1°C° 0 mm 3 mps 748 mmHg 76%
    09:00 +2°C° 0 mm 3 mps 748 mmHg 62%
    10:00 +3°C° 0 mm 4 mps 748 mmHg 48%
    11:00 +4°C° 0 mm 4 mps 748 mmHg 42%
    12:00 +3°C° 0 mm 5 mps 748 mmHg 37%
    13:00 +5°C° 0 mm 5 mps 748 mmHg 32%
    14:00 +4°C° 0 mm 6 mps 748 mmHg 32%
    15:00 +4°C° 0 mm 6 mps 748 mmHg 32%
    16:00 +4°C° 0 mm 6 mps 748 mmHg 31%
    17:00 +3°C° 0 mm 6 mps 748 mmHg 37%
    18:00 +2°C° 0 mm 5 mps 748 mmHg 43%
    19:00 +1°C° 0 mm 4 mps 748 mmHg 49%
    20:00 0°C° 0 mm 4 mps 748 mmHg 53%
    21:00 0°C° 0 mm 3 mps 748 mmHg 58%
    22:00 0°C° 0 mm 3 mps 748 mmHg 63%
    23:00 -1°C° 0 mm 3 mps 748 mmHg 64%

    Day after tomorrow, 7 April, Tuesday

    Time Temperature Precipitation Wind Pressure Humidity
    00:00 -1°C° 0 mm 3 mps 748 mmHg 64%
    01:00 -1°C° 0 mm 3 mps 748 mmHg 65%
    02:00 -2°C° 0 mm 3 mps 749 mmHg 64%
    03:00 -2°C° 0 mm 3 mps 749 mmHg 63%
    04:00 -2°C° 0 mm 3 mps 749 mmHg 62%
    05:00 -3°C° 0 mm 4 mps 750 mmHg 61%
    06:00 -3°C° 0 mm 4 mps 750 mmHg 60%
    07:00 -3°C° 0 mm 4 mps 751 mmHg 58%
    08:00 -2°C° 0 mm 4 mps 751 mmHg 51%
    09:00 0°C° 0 mm 5 mps 752 mmHg 44%
    10:00 +1°C° 0 mm 5 mps 752 mmHg 37%
    11:00 +1°C° 0 mm 5 mps 753 mmHg 43%
    12:00 +1°C° 0 mm 6 mps 753 mmHg 49%
    13:00 +1°C° 0 mm 6 mps 753 mmHg 55%
    14:00 +1°C° 0.1 mm 6 mps 753 mmHg 51%
    15:00 +1°C° 0.1 mm 6 mps 753 mmHg 47%
    16:00 +1°C° 0.1 mm 6 mps 754 mmHg 43%
    17:00 0°C° 0 mm 5 mps 754 mmHg 44%
    18:00 0°C° 0 mm 5 mps 754 mmHg 46%
    19:00 -1°C° 0 mm 4 mps 754 mmHg 47%
    20:00 -1°C° 0 mm 4 mps 754 mmHg 51%
    21:00 -2°C° 0 mm 5 mps 754 mmHg 55%
    22:00 -2°C° 0 mm 5 mps 754 mmHg 60%
    23:00 -4°C° 0 mm 5 mps 754 mmHg 60%

    8 April, Wednesday

    Time Temperature Precipitation Wind Pressure Humidity
    00:00 -4°C° 0 mm 6 mps 754 mmHg 61%
    01:00 -4°C° 0 mm 6 mps 754 mmHg 61%
    02:00 -4°C° 0 mm 6 mps 754 mmHg 62%
    03:00 -4°C° 0 mm 6 mps 754 mmHg 62%
    04:00 -5°C° 0 mm 6 mps 753 mmHg 63%
    05:00 -5°C° 0 mm 6 mps 754 mmHg 63%
    06:00 -5°C° 0 mm 6 mps 754 mmHg 64%
    07:00 -4°C° 0 mm 6 mps 754 mmHg 64%
    08:00 -4°C° 0 mm 6 mps 754 mmHg 59%
    09:00 -3°C° 0 mm 6 mps 754 mmHg 53%
    10:00 -1°C° 0 mm 5 mps 754 mmHg 47%
    11:00 0°C° 0 mm 5 mps 753 mmHg 44%
    12:00 0°C° 0 mm 5 mps 753 mmHg 40%
    13:00 +1°C° 0 mm 4 mps 753 mmHg 37%
    14:00 +3°C° 0 mm 4 mps 753 mmHg 36%
    15:00 +3°C° 0 mm 4 mps 753 mmHg 36%
    16:00 +4°C° 0 mm 4 mps 753 mmHg 35%
    17:00 +3°C° 0 mm 3 mps 753 mmHg 39%
    18:00 +3°C° 0 mm 2 mps 753 mmHg 43%
    19:00 +2°C° 0 mm 2 mps 753 mmHg 47%
    20:00 +2°C° 0 mm 2 mps 753 mmHg 49%
    21:00 +1°C° 0 mm 2 mps 753 mmHg 51%
    22:00 +1°C° 0 mm 2 mps 753 mmHg 53%
    23:00 0°C° 0 mm 3 mps 753 mmHg 57%

    9 April, Thursday

    Time Temperature Precipitation Wind Pressure Humidity
    00:00 0°C° 0 mm 3 mps 753 mmHg 61%
    01:00 0°C° 0 mm 3 mps 753 mmHg 64%
    02:00 -1°C° 0.2 mm 4 mps 753 mmHg 75%
    03:00 -1°C° 0.2 mm 4 mps 753 mmHg 86%
    04:00 -1°C° 0.2 mm 5 mps 753 mmHg 96%
    05:00 -1°C° 0.3 mm 5 mps 753 mmHg 94%
    06:00 -1°C° 0.3 mm 5 mps 753 mmHg 93%
    07:00 -1°C° 0.3 mm 5 mps 753 mmHg 91%
    08:00 +1°C° 0.2 mm 5 mps 754 mmHg 83%
    09:00 +2°C° 0.2 mm 5 mps 754 mmHg 74%
    10:00 +3°C° 0.2 mm 5 mps 754 mmHg 66%
    11:00 +6°C° 0 mm 5 mps 754 mmHg 60%
    12:00 +8°C° 0 mm 6 mps 754 mmHg 55%
    13:00 +9°C° 0 mm 6 mps 754 mmHg 49%
    14:00 +9°C° 0 mm 6 mps 754 mmHg 47%
    15:00 +10°C° 0 mm 6 mps 754 mmHg 45%
    16:00 +10°C° 0 mm 6 mps 754 mmHg 44%
    17:00 +9°C° 0 mm 5 mps 754 mmHg 47%
    18:00 +8°C° 0 mm 5 mps 754 mmHg 51%
    19:00 +6°C° 0 mm 4 mps 754 mmHg 55%
    20:00 +6°C° 0 mm 4 mps 755 mmHg 56%
    21:00 +5°C° 0 mm 4 mps 755 mmHg 57%
    22:00 +3°C° 0 mm 5 mps 755 mmHg 58%
    23:00 +4°C° 0 mm 4 mps 755 mmHg 60%

    10 April, Friday

    Time Temperature Precipitation Wind Pressure Humidity
    00:00 +3°C° 0 mm 4 mps 755 mmHg 62%
    01:00 +3°C° 0 mm 4 mps 755 mmHg 64%
    02:00 +1°C° 0 mm 4 mps 755 mmHg 65%
    03:00 +1°C° 0 mm 4 mps 755 mmHg 66%
    04:00 +1°C° 0 mm 4 mps 755 mmHg 67%
    05:00 +1°C° 0 mm 4 mps 755 mmHg 65%
    06:00 +1°C° 0 mm 4 mps 755 mmHg 64%
    07:00 +1°C° 0 mm 5 mps 755 mmHg 63%
    08:00 +3°C° 0 mm 6 mps 755 mmHg 57%
    09:00 +4°C° 0 mm 6 mps 755 mmHg 50%
    10:00 +6°C° 0 mm 7 mps 755 mmHg 44%
    11:00 +8°C° 0 mm 7 mps 755 mmHg 42%
    12:00 +9°C° 0 mm 8 mps 755 mmHg 40%
    13:00 +10°C° 0 mm 8 mps 754 mmHg 38%
    14:00 +10°C° 0 mm 7 mps 754 mmHg 38%
    15:00 +10°C° 0 mm 7 mps 753 mmHg 38%
    16:00 +10°C° 0 mm 7 mps 753 mmHg 38%
    17:00 +9°C° 0 mm 6 mps 753 mmHg 42%
    18:00 +8°C° 0 mm 5 mps 752 mmHg 47%
    19:00 +7°C° 0 mm 4 mps 752 mmHg 51%
    20:00 +6°C° 0 mm 4 mps 752 mmHg 53%
    21:00 +6°C° 0 mm 5 mps 752 mmHg 55%
    22:00 +5°C° 0 mm 5 mps 752 mmHg 57%
    23:00 +5°C° 0 mm 5 mps 752 mmHg 57%
    Show more